Location: The Saddle
(36.8333°N, 80.3417°W)
Time: 01:05:03
(UTC-05:00)

AO-7 - Pass Details

Date: 11 December 2023
Orbit: 1440 x 1458 km, 102.0° (Epoch: 01 March)

Event Time Altitude Azimuth Distance (km) Brightness Sun altitude
Rises 18:14:04 0° 208° (SSW) 4,530 ? -13.4°
Reaches altitude 10° 18:17:57 10° 225° (SW) 3,553 ? -14.2°
Maximum altitude 18:23:21 19° 266° (W) 2,921 ? -15.2°
Drops below altitude 10° 18:28:48 10° 308° (NW) 3,559 ? -16.2°
Sets 18:32:46 0° 326° (NW) 4,539 ? -17.0°
